"Timestamp","TZ","WindDir_Mean (deg)","WindSpd_Mean (km/h)","WindSpd_Min (km/h)","WindSpd_Max (km/h)","Temp_Mean (deg)","RH_Mean (%)","MSLP_Mean (hPa)","Rain_Acc (mm)","Rain_Intensity (mm/h)","Hail_Acc (hits/cm2)","Hail_Intensity (hits/cm2hr)","Solar_Mean (W/m2)"
2020/12/19 00:00:00.003,n,338,1.44,0.36,2.52,25.5,74.9,1013.42,0,0,0,0,0.039177
2020/12/19 00:01:00.001,n,329,2.16,1.8,2.52,25.5,74.9,1013.42,0,0,0,0,0.039177
2020/12/19 00:02:00.000,n,271,1.44,0.72,2.16,25.5,74.7,1013.42,0,0,0,0,0.040894
2020/12/19 00:03:00.000,n,282,4.68,2.16,5.76,25.5,74.6,1013.42,0,0,0,0,0.043526
2020/12/19 00:04:00.000,n,199,1.8,0.36,2.88,25.5,75.2,1013.42,0,0,0,0,0.04261
2020/12/19 00:05:00.006,n,17,3.24,0.36,8.28,25.5,75.3,1013.42,0,0,0,0,0.041771
2020/12/19 00:06:00.003,n,345,5.76,4.32,7.92,25.5,75.3,1013.32,0,0,0,0,0.041771
2020/12/19 00:07:00.001,n,337,3.96,2.52,5.76,25.5,74.9,1013.32,0,0,0,0,0.025215
2020/12/19 00:08:00.010,n,28,7.92,3.6,9,25.4,74.6,1013.32,0,0,0,0,0.029564
2020/12/19 00:09:00.009,n,350,5.76,3.96,7.92,25.4,74.9,1013.32,0,0,0,0,0.028687
2020/12/19 00:10:00.000,n,0,4.32,1.08,6.84,25.4,75.2,1013.32,0,0,0,0,0.027809
2020/12/19 00:11:00.002,n,346,8.28,6.48,9.36,25.4,74.9,1013.22,0,0,0,0,0.033035
2020/12/19 00:12:00.000,n,10,6.84,4.32,9.72,25.4,75.1,1013.22,0,0,0,0,0.024338
2020/12/19 00:13:00.000,n,325,2.16,0.72,3.6,25.3,75,1013.22,0,0,0,0,0.028687
2020/12/19 00:14:00.000,n,340,5.4,4.68,6.12,25.4,75.2,1013.22,0,0,0,0,0.031281
2020/12/19 00:15:00.007,n,353,7.92,6.12,8.28,25.3,75,1013.12,0,0,0,0,0.025215
2020/12/19 00:16:00.003,n,356,3.6,2.52,3.96,25.3,75.1,1013.12,0,0,0,0,0.027809
2020/12/19 00:17:00.000,n,68,2.88,1.8,3.24,25.3,75.6,1013.12,0,0,0,0,0.031281
2020/12/19 00:18:00.014,n,353,11.16,9.36,11.52,25.3,75.4,1013.02,0,0,0,0,0.025215
2020/12/19 00:19:00.000,n,350,14.4,14.04,14.76,25.3,75.2,1012.92,0,0,0,0,0.027809
2020/12/19 00:20:00.000,n,14,14.4,12.24,15.12,25.3,75.2,1012.92,0,0,0,0,0.026054
2020/12/19 00:21:00.000,n,56,3.6,1.44,6.48,25.2,75.3,1012.92,0,0,0,0,0.024338
2020/12/19 00:22:00.004,n,353,8.64,2.88,11.88,25.2,75.8,1012.82,0,0,0,0,0.02697
2020/12/19 00:23:00.001,n,16,3.6,1.08,7.56,25.2,75.6,1012.82,0,0,0,0,0.028687
2020/12/19 00:24:00.000,n,28,2.52,0.72,4.32,25.2,75.6,1012.82,0,0,0,0,0.030403
2020/12/19 00:25:00.011,n,355,14.76,13.68,15.12,25.2,75.7,1012.82,0,0,0,0,0.027809
2020/12/19 00:26:00.008,n,5,10.08,8.64,12.96,25.2,75.8,1012.72,0,0,0,0,0.031281
2020/12/19 00:27:00.005,n,8,7.92,5.4,9,25.2,75.6,1012.82,0,0,0,0,0.028687
2020/12/19 00:28:00.000,n,353,14.04,12.96,16.56,25.2,75.7,1012.72,0,0,0,0,0.026054
2020/12/19 00:29:00.000,n,344,9.72,5.76,11.16,25.2,76.1,1012.72,0,0,0,0,0.026054
2020/12/19 00:30:00.000,n,4,5.76,5.4,6.48,25.2,75.8,1012.72,0,0,0,0,0.024338
2020/12/19 00:31:00.000,n,6,9.72,8.64,10.8,25.2,75.8,1012.62,0,0,0,0,0.022621
2020/12/19 00:32:00.007,n,10,8.64,7.56,10.08,25.2,75.7,1012.62,0,0,0,0,0.026054
2020/12/19 00:33:00.005,n,347,11.52,9.72,13.32,25.2,75.8,1012.52,0,0,0,0,0.022621
2020/12/19 00:34:00.003,n,349,7.2,5.04,9,25.2,76.3,1012.52,0,0,0,0,0.019989
2020/12/19 00:35:00.000,n,44,7.56,6.48,9.36,25.2,75.8,1012.42,0,0,0,0,0.019989
2020/12/19 00:36:00.013,n,357,7.92,6.48,9.72,25.2,75.5,1012.42,0,0,0,0,0.021744
2020/12/19 00:37:00.000,n,2,11.88,10.440002,15.12,25.1,75.6,1012.42,0,0,0,0,0.020866
2020/12/19 00:38:00.000,n,32,8.64,5.4,10.8,25.1,75.6,1012.32,0,0,0,0,0.019112
2020/12/19 00:39:00.005,n,36,14.04,12.24,15.12,25.1,75.6,1012.32,0,0,0,0,0.026932
2020/12/19 00:40:00.000,n,349,15.48,11.88,18.359998,25.1,75.9,1012.32,0,0,0,0,0.03479
2020/12/19 00:41:00.000,n,16,19.8,18.359998,20.880002,25.1,75.6,1012.22,0,0,0,0,0.032158
2020/12/19 00:42:00.008,n,32,9.72,5.4,14.4,25.1,75.8,1012.22,0,0,0,0,0.033951
2020/12/19 00:43:00.005,n,1,18,16.2,20.519998,25.1,75.7,1012.12,0,0,0,0,0.029564
2020/12/19 00:44:00.002,n,346,17.64,16.56,19.44,25.1,75.8,1012.12,0,0,0,0,0.027847
2020/12/19 00:45:00.016,n,357,18,16.56,22.68,25.1,75.8,1012.12,0,0,0,0,0.025215
2020/12/19 00:46:00.000,n,347,15.48,14.04,18,25,75.7,1012.12,0,0,0,0,0.029564
2020/12/19 00:47:00.000,n,2,17.28,14.4,21.96,25,75.9,1012.12,0,0,0,0,0.026093
2020/12/19 00:48:00.000,n,30,12.6,11.52,15.12,25,75.8,1012.02,0,0,0,0,0.027847
2020/12/19 00:49:00.005,n,358,16.56,14.04,18.359998,25,75.8,1012.12,0,0,0,0,0.025215
2020/12/19 00:50:00.002,n,356,17.64,16.919998,19.08,25,76,1012.02,0,0,0,0,0.024338
2020/12/19 00:51:00.000,n,0,16.919998,14.76,17.28,25,75.9,1012.02,0,0,0,0,0.026093
2020/12/19 00:52:00.011,n,353,23.4,22.319998,24.48,25,76,1012.02,0,0,0,0,0.022621
2020/12/19 00:53:00.009,n,3,9.36,6.84,11.52,25,76,1011.92,0,0,0,0,0.023499
2020/12/19 00:54:00.005,n,41,4.68,1.08,11.52,25,76.1,1011.92,0,0,0,0,0.020866
2020/12/19 00:55:00.000,n,33,14.04,11.16,16.919998,25,76.1,1011.92,0,0,0,0,0.01915
2020/12/19 00:56:00.000,n,50,6.12,1.8,8.64,25,76,1011.92,0,0,0,0,0.019989
2020/12/19 00:57:00.000,n,346,12.24,8.64,16.2,25,76.3,1011.92,0,0,0,0,0.017395
2020/12/19 00:58:00.000,n,24,6.84,5.04,8.28,25.1,76.7,1011.92,0,0,0,0,0.018272
2020/12/19 00:59:00.008,n,15,11.88,10.08,13.32,25,76.1,1011.92,0,0,0,0,0.023537
2020/12/19 01:00:00.003,n,0,14.04,11.88,15.48,25,76.1,1011.92,0,0,0,0,0.028725
2020/12/19 01:01:00.000,n,35,16.56,12.6,18.359998,24.9,76.2,1011.92,0,0,0,0,0.028725
2020/12/19 01:02:00.013,n,350,8.64,6.48,9.36,24.9,76.6,1011.92,0,0,0,0,0.027847
2020/12/19 01:03:00.010,n,347,12.24,10.440002,13.32,25,76.6,1012.02,0,0,0,0,0.029602
2020/12/19 01:04:00.000,n,347,16.2,14.4,17.64,25,76.7,1011.92,0,0,0,0,0.027847
2020/12/19 01:05:00.003,n,8,11.52,9,12.6,25,76.9,1011.92,0,0,0,0,0.028725
2020/12/19 01:06:00.000,n,36,12.24,4.68,18,25,76.3,1011.92,0,0,0,0,0.025253
2020/12/19 01:07:00.000,n,18,8.28,6.12,12.24,24.9,76.3,1011.92,0,0,0,0,0.02697
2020/12/19 01:08:00.000,n,0,4.32,0.36,7.2,24.9,76.4,1011.92,0,0,0,0,0.026131
2020/12/19 01:09:00.008,n,33,4.32,1.08,9.36,24.9,76.4,1011.92,0,0,0,0,0.027847
2020/12/19 01:10:00.004,n,17,5.4,3.96,6.48,24.9,76.5,1011.92,0,0,0,0,0.027847
2020/12/19 01:11:00.002,n,30,5.04,3.96,6.12,24.9,76.5,1011.92,0,0,0,0,0.024376
2020/12/19 01:12:00.015,n,7,7.56,7.2,8.64,24.9,76.4,1011.92,0,0,0,0,0.024376
2020/12/19 01:13:00.000,n,19,10.08,9.72,11.16,24.9,76.5,1011.92,0,0,0,0,0.026131
2020/12/19 01:14:00.000,n,352,12.24,10.8,14.76,24.9,76.3,1011.82,0,0,0,0,0.023537
2020/12/19 01:15:00.000,n,20,10.8,7.2,12.6,24.9,76.3,1011.92,0,0,0,0,0.025253
2020/12/19 01:16:00.005,n,20,8.64,7.56,9.36,24.9,76.4,1011.92,0,0,0,0,0.025253
2020/12/19 01:17:00.003,n,349,9.72,7.92,11.16,24.9,76.5,1011.82,0,0,0,0,0.02697
2020/12/19 01:18:00.000,n,6,9,8.28,10.440002,24.9,76.3,1011.82,0,0,0,0,0.023537
2020/12/19 01:19:00.012,n,17,12.24,9,13.32,24.9,76.2,1011.72,0,0,0,0,0.023537
2020/12/19 01:20:00.010,n,4,8.28,6.84,9,24.9,76.2,1011.62,0,0,0,0,0.025253
2020/12/19 01:21:00.006,n,8,13.32,10.8,16.56,24.9,76.2,1011.62,0,0,0,0,0.025253
2020/12/19 01:22:00.000,n,31,18.72,12.6,23.04,24.9,76,1011.52,0,0,0,0,0.020905
2020/12/19 01:23:00.000,n,16,15.84,14.4,16.919998,24.9,76,1011.42,0,0,0,0,0.024376
2020/12/19 01:24:00.000,n,37,13.68,12.6,15.12,24.9,75.9,1011.42,0,0,0,0,0.027847
2020/12/19 01:25:00.000,n,32,14.04,6.84,19.8,24.9,75.9,1011.42,0,0,0,0,0.027847
2020/12/19 01:26:00.008,n,12,13.68,13.32,14.76,24.9,75.9,1011.42,0,0,0,0,0.025253
2020/12/19 01:27:00.005,n,6,18,16.919998,19.44,24.9,75.7,1011.42,0,0,0,0,0.024376
2020/12/19 01:28:00.002,n,32,16.919998,15.84,18.72,24.9,75.7,1011.42,0,0,0,0,0.022621
2020/12/19 01:29:00.000,n,42,10.8,8.28,12.24,24.9,75.8,1011.42,0,0,0,0,0.023537
2020/12/19 01:30:00.013,n,5,6.84,6.12,7.56,24.9,75.8,1011.42,0,0,0,0,0.01915
2020/12/19 01:31:00.000,n,38,8.64,6.12,11.52,24.9,75.7,1011.42,0,0,0,0,0.025253
2020/12/19 01:32:00.000,n,34,9.72,7.2,11.88,24.9,75.7,1011.52,0,0,0,0,0.023537
2020/12/19 01:33:00.004,n,20,7.92,5.76,9.72,24.9,75.6,1011.52,0,0,0,0,0.021744
2020/12/19 01:34:00.001,n,22,11.16,9.36,12.6,24.8,75.3,1011.52,0,0,0,0,0.024376
2020/12/19 01:35:00.000,n,34,8.64,5.4,11.52,24.9,75.3,1011.42,0,0,0,0,0.025253
2020/12/19 01:36:00.000,n,317,7.56,2.52,10.440002,24.9,75.2,1011.42,0,0,0,0,0.024376
2020/12/19 01:37:00.009,n,10,11.88,10.440002,14.4,24.9,75,1011.32,0,0,0,0,0.026131
2020/12/19 01:38:00.006,n,6,14.76,12.24,16.56,24.9,74.9,1011.22,0,0,0,0,0.026131
2020/12/19 01:39:00.003,n,1,15.84,14.4,17.28,24.9,74.9,1011.22,0,0,0,0,0.021744
2020/12/19 01:40:00.001,n,32,18.72,15.84,20.880002,24.9,74.8,1011.12,0,0,0,0,0.025253
2020/12/19 01:41:00.000,n,11,6.12,2.52,8.64,24.9,74.7,1011.12,0,0,0,0,0.022621
2020/12/19 01:42:00.000,n,0,3.96,1.08,10.8,24.9,74.5,1011.02,0,0,0,0,0.020905
2020/12/19 01:43:00.000,n,353,15.84,13.68,16.919998,24.9,74.4,1011.12,0,0,0,0,0.01915
2020/12/19 01:44:00.004,n,29,9.72,9,10.440002,24.9,74.4,1011.02,0,0,0,0,0.021744
2020/12/19 01:45:00.002,n,66,5.4,2.16,8.28,24.9,74.5,1011.12,0,0,0,0,0.016518
2020/12/19 01:46:00.000,n,42,13.68,5.4,15.84,24.9,74.6,1011.02,0,0,0,0,0.023537
2020/12/19 01:47:00.011,n,15,9.36,6.48,10.440002,24.9,74.6,1011.02,0,0,0,0,0.016518
2020/12/19 01:48:00.008,n,24,17.64,10.8,22.319998,24.9,74.2,1011.02,0,0,0,0,0.027847
2020/12/19 01:49:00.000,n,338,2.52,0.72,3.24,24.9,74.4,1011.02,0,0,0,0,0.032196
2020/12/19 01:50:00.001,n,345,12.6,7.92,16.2,24.9,73.7,1011.02,0,0,0,0,0.031357
2020/12/19 01:51:00.000,n,9,13.68,12.24,15.12,24.9,73.9,1011.02,0,0,0,0,0.033073
2020/12/19 01:52:00.000,n,356,7.56,6.48,8.28,24.9,73.9,1011.02,0,0,0,0,0.033951
2020/12/19 01:53:00.000,n,72,4.68,1.08,12.96,25,73.9,1011.02,0,0,0,0,0.033073
2020/12/19 01:54:00.008,n,22,12.6,10.8,14.04,25,73.3,1011.02,0,0,0,0,0.030441
2020/12/19 01:55:00.005,n,34,10.440002,8.28,11.52,25,73.1,1010.92,0,0,0,0,0.031357
2020/12/19 01:56:00.002,n,6,11.16,9,12.6,25,73.4,1010.92,0,0,0,0,0.033073
2020/12/19 01:57:00.015,n,35,10.440002,9,12.24,25,73.5,1010.92,0,0,0,0,0.027847
2020/12/19 01:58:00.000,n,19,14.04,12.24,15.48,25,73.5,1010.92,0,0,0,0,0.036545
2020/12/19 01:59:00.000,n,34,13.68,10.440002,15.12,25,73.4,1010.82,0,0,0,0,0.033951
2020/12/19 02:00:00.000,n,14,11.88,10.8,12.96,25,73.4,1010.82,0,0,0,0,0.031357
2020/12/19 02:01:00.004,n,22,11.88,10.8,14.04,25,73.3,1010.82,0,0,0,0,0.033073
2020/12/19 02:02:00.000,n,94,2.52,0,4.32,25,73.4,1010.82,0,0,0,0,0.031357
2020/12/19 02:03:00.000,n,21,19.08,6.84,25.919998,25,73.2,1010.82,0,0,0,0,0.02697
2020/12/19 02:04:00.012,n,41,10.440002,4.32,12.96,25,73,1010.82,0,0,0,0,0.028725
2020/12/19 02:05:00.009,n,13,18.359998,15.48,21.599998,25,72.8,1010.72,0,0,0,0,0.029564
2020/12/19 02:06:00.005,n,24,11.52,8.28,13.68,25,72.8,1010.82,0,0,0,0,0.029564
2020/12/19 02:07:00.002,n,26,11.88,11.16,12.6,25,73,1010.82,0,0,0,0,0.031357
2020/12/19 02:08:00.000,n,38,16.919998,13.32,19.08,25,73.1,1010.82,0,0,0,0,0.033951
2020/12/19 02:09:00.000,n,23,9,7.92,9.72,25,73.2,1010.92,0,0,0,0,0.030441
2020/12/19 02:10:00.000,n,27,7.2,6.48,7.92,25,73.2,1010.92,0,0,0,0,0.027847
2020/12/19 02:11:00.007,n,16,11.16,9.72,13.32,25,73.4,1010.82,0,0,0,0,0.029564
2020/12/19 02:12:00.004,n,21,10.8,10.440002,11.52,25,73.5,1010.82,0,0,0,0,0.030441
2020/12/19 02:13:00.000,n,22,16.56,13.68,18,25,73.6,1010.72,0,0,0,0,0.03479
2020/12/19 02:14:00.014,n,4,15.48,3.96,20.519998,25,73.6,1010.62,0,0,0,0,0.033951
2020/12/19 02:15:00.011,n,47,15.48,7.92,18.72,24.9,73.7,1010.62,0,0,0,0,0.03479
2020/12/19 02:16:00.000,n,15,18.72,13.32,21.599998,24.9,73.6,1010.62,0,0,0,0,0.02697
2020/12/19 02:17:00.000,n,18,15.12,14.4,15.84,24.9,73.8,1010.62,0,0,0,0,0.033951
2020/12/19 02:18:00.003,n,44,12.24,11.52,14.76,24.9,74,1010.62,0,0,0,0,0.033073
2020/12/19 02:19:00.000,n,4,16.919998,10.8,19.44,24.9,73.7,1010.52,0,0,0,0,0.027847
2020/12/19 02:20:00.000,n,16,18.359998,15.48,21.599998,24.9,73.7,1010.52,0,0,0,0,0.026131
2020/12/19 02:21:00.009,n,7,12.6,11.88,14.76,24.9,73.6,1010.62,0,0,0,0,0.031357
2020/12/19 02:22:00.006,n,29,14.4,13.32,15.12,24.9,73.7,1010.62,0,0,0,0,0.028725
2020/12/19 02:23:00.003,n,29,9,3.6,12.6,24.9,73.8,1010.72,0,0,0,0,0.029564
2020/12/19 02:24:00.001,n,28,15.12,13.32,19.08,24.9,73.4,1010.72,0,0,0,0,0.028725
2020/12/19 02:25:00.000,n,35,16.56,15.12,17.64,24.9,73.5,1010.72,0,0,0,0,0.024338
2020/12/19 02:26:00.000,n,26,15.48,13.68,16.56,24.9,73.6,1010.62,0,0,0,0,0.025253
2020/12/19 02:27:00.000,n,342,16.2,14.4,20.880002,24.9,73.6,1010.52,0,0,0,0,0.030441
2020/12/19 02:28:00.006,n,41,21.96,19.44,24.48,24.9,73.4,1010.52,0,0,0,0,0.02697
2020/12/19 02:29:00.003,n,42,6.12,3.24,10.440002,24.9,73.6,1010.52,0,0,0,0,0.026131
2020/12/19 02:30:00.000,n,45,16.56,15.84,17.28,24.9,73.7,1010.52,0,0,0,0,0.026131
2020/12/19 02:31:00.000,n,21,16.919998,12.6,18.72,24.9,73.5,1010.42,0,0,0,0,0.02697
2020/12/19 02:32:00.009,n,38,12.6,11.16,14.04,24.9,73.8,1010.42,0,0,0,0,0.027847
2020/12/19 02:33:00.006,n,41,7.92,7.56,8.28,24.9,73.9,1010.42,0,0,0,0,0.02697
2020/12/19 02:34:00.000,n,48,3.96,1.8,6.84,24.9,74.1,1010.52,0,0,0,0,0.026131
2020/12/19 02:35:00.001,n,41,7.92,7.2,9.72,24.9,74.1,1010.52,0,0,0,0,0.029564
2020/12/19 02:36:00.000,n,18,9,7.56,10.08,24.9,74.2,1010.52,0,0,0,0,0.024338
2020/12/19 02:37:00.000,n,54,3.24,1.8,4.32,24.8,74.3,1010.62,0,0,0,0,0.027847
2020/12/19 02:38:00.008,n,38,12.24,11.88,12.6,24.8,74.5,1010.62,0,0,0,0,0.025253
2020/12/19 02:39:00.006,n,58,13.32,9.72,17.28,24.8,74.5,1010.72,0,0,0,0,0.029564
2020/12/19 02:40:00.003,n,33,9.36,9,11.16,24.8,74.4,1010.62,0,0,0,0,0.027847
2020/12/19 02:41:00.000,n,34,10.8,9.36,12.24,24.8,74.5,1010.62,0,0,0,0,0.023499
2020/12/19 02:42:00.013,n,58,7.2,6.84,7.56,24.8,74.5,1010.62,0,0,0,0,0.024338
2020/12/19 02:43:00.000,n,33,11.52,10.8,12.24,24.8,74.7,1010.62,0,0,0,0,0.026131
2020/12/19 02:44:00.000,n,33,14.4,12.96,15.48,24.8,74.7,1010.62,0,0,0,0,0.01915
2020/12/19 02:45:00.004,n,41,6.84,0.72,9.36,24.8,74.8,1010.52,0,0,0,0,0.030441
2020/12/19 02:46:00.001,n,16,8.28,5.76,10.440002,24.7,74.8,1010.52,0,0,0,0,0.02697
2020/12/19 02:47:00.000,n,36,17.64,16.56,18.72,24.7,74.8,1010.52,0,0,0,0,0.029564
2020/12/19 02:48:00.000,n,13,7.2,3.24,9,24.7,75.1,1010.62,0,0,0,0,0.028725
2020/12/19 02:49:00.009,n,346,12.96,8.64,16.919998,24.7,75.1,1010.62,0,0,0,0,0.030441
2020/12/19 02:50:00.006,n,44,10.440002,9.72,11.88,24.7,75.2,1010.62,0,0,0,0,0.028725
2020/12/19 02:51:00.004,n,38,11.16,9.72,12.24,24.7,75.3,1010.62,0,0,0,0,0.028725
2020/12/19 02:52:00.001,n,69,10.8,5.4,15.12,24.7,75.3,1010.52,0,0,0,0,0.02697
2020/12/19 02:53:00.000,n,44,7.92,3.96,10.440002,24.7,75.4,1010.62,0,0,0,0,0.026131
2020/12/19 02:54:00.000,n,31,10.08,9.36,10.8,24.7,75.4,1010.62,0,0,0,0,0.028725
2020/12/19 02:55:00.000,n,40,8.28,6.84,9.72,24.7,75.6,1010.62,0,0,0,0,0.028725
2020/12/19 02:56:00.008,n,38,7.92,7.2,9,24.7,75.6,1010.62,0,0,0,0,0.027847
2020/12/19 02:57:00.004,n,34,16.2,15.12,16.919998,24.7,75.8,1010.62,0,0,0,0,0.030441
2020/12/19 02:58:00.003,n,17,11.16,9.72,12.24,24.7,75.7,1010.72,0,0,0,0,0.027847
2020/12/19 02:59:00.000,n,4,6.84,5.04,9,24.7,75.7,1010.72,0,0,0,0,0.027847
2020/12/19 03:00:00.014,n,4,5.76,5.04,6.12,24.7,75.7,1010.72,0,0,0,0,0.026131
2020/12/19 03:01:00.000,n,19,7.2,6.12,9.36,24.7,75.7,1010.82,0,0,0,0,0.029564
2020/12/19 03:02:00.000,n,22,7.2,6.48,8.28,24.7,75.7,1010.82,0,0,0,0,0.026131
2020/12/19 03:03:00.000,n,23,9.36,8.28,10.08,24.7,75.8,1010.82,0,0,0,0,0.030441
2020/12/19 03:04:00.003,n,33,9,8.64,9.72,24.7,75.7,1010.82,0,0,0,0,0.033073
2020/12/19 03:05:00.000,n,13,7.92,7.92,8.28,24.7,75.7,1010.82,0,0,0,0,0.026131
2020/12/19 03:06:00.000,n,8,8.28,7.2,9.36,24.7,75.8,1010.82,0,0,0,0,0.028725
2020/12/19 03:07:00.011,n,19,13.68,12.96,14.4,24.7,75.7,1010.72,0,0,0,0,0.033073
2020/12/19 03:08:00.008,n,5,6.84,5.04,8.28,24.7,75.8,1010.72,0,0,0,0,0.028725
2020/12/19 03:09:00.005,n,21,14.4,12.96,15.48,24.7,75.9,1010.62,0,0,0,0,0.031357
2020/12/19 03:10:00.000,n,44,15.12,12.96,15.84,24.7,76,1010.62,0,0,0,0,0.028725
2020/12/19 03:11:00.000,n,18,15.12,12.96,17.28,24.7,75.9,1010.62,0,0,0,0,0.028725
2020/12/19 03:12:00.000,n,7,5.4,4.32,7.92,24.7,75.9,1010.72,0,0,0,0,0.029564
2020/12/19 03:13:00.000,n,40,13.32,12.24,13.32,24.7,75.9,1010.62,0,0,0,0,0.03479
2020/12/19 03:14:00.008,n,29,14.4,13.68,15.12,24.7,75.9,1010.62,0,0,0,0,0.033073
2020/12/19 03:15:00.005,n,351,8.64,7.56,9,24.7,76,1010.72,0,0,0,0,0.030441
2020/12/19 03:16:00.002,n,39,10.8,9.36,11.16,24.7,75.9,1010.62,0,0,0,0,0.030441
2020/12/19 03:17:00.000,n,47,12.96,10.08,14.76,24.7,75.9,1010.72,0,0,0,0,0.030441
2020/12/19 03:18:00.014,n,39,9.36,6.48,10.440002,24.7,75.9,1010.62,0,0,0,0,0.030441
2020/12/19 03:19:00.000,n,13,7.92,6.12,10.08,24.7,75.9,1010.62,0,0,0,0,0.032196
2020/12/19 03:20:00.000,n,55,7.56,5.04,9,24.7,75.9,1010.62,0,0,0,0,0.030441
2020/12/19 03:21:00.000,n,43,8.28,7.56,9.72,24.7,76,1010.62,0,0,0,0,0.029564
2020/12/19 03:22:00.002,n,41,12.6,11.88,14.4,24.7,76.1,1010.62,0,0,0,0,0.031357
2020/12/19 03:23:00.000,n,57,4.68,1.08,9,24.7,76.1,1010.72,0,0,0,0,0.027847
2020/12/19 03:24:00.000,n,28,10.440002,6.48,12.24,24.7,76.1,1010.72,0,0,0,0,0.031357
2020/12/19 03:25:00.011,n,41,13.68,10.08,16.56,24.7,76.1,1010.72,0,0,0,0,0.024338
2020/12/19 03:26:00.009,n,27,11.52,9.36,12.24,24.7,76.1,1010.72,0,0,0,0,0.030441
2020/12/19 03:27:00.005,n,324,3.24,0.36,6.48,24.7,76.1,1010.72,0,0,0,0,0.028725
2020/12/19 03:28:00.000,n,1,12.96,11.52,13.68,24.7,76,1010.72,0,0,0,0,0.029564
2020/12/19 03:29:00.000,n,67,10.8,10.440002,11.88,24.7,76.4,1010.72,0,0,0,0,0.031357
2020/12/19 03:30:00.000,n,49,7.56,2.52,11.52,24.7,76.4,1010.72,0,0,0,0,0.031357
2020/12/19 03:31:00.000,n,32,10.8,6.12,12.96,24.7,76.3,1010.72,0,0,0,0,0.032196
2020/12/19 03:32:00.008,n,17,7.56,6.84,8.28,24.7,76.6,1010.72,0,0,0,0,0.029564
2020/12/19 03:33:00.005,n,23,10.8,10.08,11.88,24.7,76.4,1010.82,0,0,0,0,0.02697
2020/12/19 03:34:00.001,n,43,6.84,4.32,8.28,24.7,76.7,1010.82,0,0,0,0,0.031357
2020/12/19 03:35:00.000,n,22,5.4,4.32,6.48,24.7,76.9,1010.82,0,0,0,0,0.027847
2020/12/19 03:36:00.011,n,51,15.48,10.8,20.880002,24.7,76.8,1010.82,0,0,0,0,0.031357
2020/12/19 03:37:00.000,n,26,6.12,4.68,7.56,24.7,76.8,1010.92,0,0,0,0,0.030441
2020/12/19 03:38:00.000,n,50,5.76,2.88,7.56,24.7,77,1010.92,0,0,0,0,0.030441
2020/12/19 03:39:00.002,n,7,12.24,10.440002,13.32,24.7,76.7,1010.92,0,0,0,0,0.030441
2020/12/19 03:40:00.000,n,44,9.36,7.92,10.440002,24.7,77,1011.02,0,0,0,0,0.025253
2020/12/19 03:41:00.000,n,55,13.68,12.96,14.4,24.7,77,1010.92,0,0,0,0,0.029564
2020/12/19 03:42:00.010,n,355,13.32,11.16,15.12,24.7,76.7,1010.92,0,0,0,0,0.028725
2020/12/19 03:43:00.007,n,40,9.36,8.28,10.8,24.7,76.9,1011.02,0,0,0,0,0.028725
2020/12/19 03:44:00.005,n,31,8.28,7.56,8.64,24.8,77.1,1011.02,0,0,0,0,0.024338
2020/12/19 03:45:00.001,n,32,7.2,6.48,7.56,24.8,77.3,1011.02,0,0,0,0,0.027847
2020/12/19 03:46:00.000,n,48,5.4,5.04,6.12,24.7,77.1,1011.02,0,0,0,0,0.028725
2020/12/19 03:47:00.000,n,357,4.68,1.08,7.2,24.7,77.2,1011.02,0,0,0,0,0.027847
2020/12/19 03:48:00.000,n,34,7.56,4.68,12.6,24.7,77.1,1011.02,0,0,0,0,0.027847
2020/12/19 03:49:00.006,n,43,7.92,7.2,8.28,24.7,77.3,1011.02,0,0,0,0,0.02697
2020/12/19 03:50:00.003,n,31,6.48,5.76,8.64,24.7,77.3,1011.12,0,0,0,0,0.029564
2020/12/19 03:51:00.001,n,30,11.52,9.36,13.32,24.7,77.3,1011.12,0,0,0,0,0.028725
2020/12/19 03:52:00.000,n,17,9.36,8.64,10.08,24.7,77.2,1011.22,0,0,0,0,0.032196
2020/12/19 03:53:00.012,n,16,9.72,9,10.440002,24.7,77.3,1011.22,0,0,0,0,0.026131
2020/12/19 03:54:00.009,n,21,14.76,14.04,15.48,24.7,77,1011.22,0,0,0,0,0.032196
2020/12/19 03:55:00.000,n,27,11.16,10.8,11.52,24.7,77.1,1011.22,0,0,0,0,0.033073
2020/12/19 03:56:00.002,n,44,5.76,5.04,6.48,24.7,77.2,1011.12,0,0,0,0,0.032196
2020/12/19 03:57:00.000,n,30,6.48,5.04,7.92,24.7,77.2,1011.12,0,0,0,0,0.032196
2020/12/19 03:58:00.000,n,23,12.6,8.64,14.04,24.7,76.8,1011.12,0,0,0,0,0.033073
2020/12/19 03:59:00.000,n,35,11.16,6.12,12.6,24.7,76.6,1011.12,0,0,0,0,0.033073
2020/12/19 04:00:00.008,n,26,9.36,8.64,10.08,24.7,76.7,1011.12,0,0,0,0,0.033073
2020/12/19 04:01:00.005,n,32,14.76,13.68,15.48,24.7,76.2,1011.12,0,0,0,0,0.0383
2020/12/19 04:02:00.002,n,27,17.64,15.84,19.44,24.7,76.1,1011.12,0,0,0,0,0.033073
2020/12/19 04:03:00.001,n,13,14.04,9.36,15.48,24.7,75.9,1011.12,0,0,0,0,0.032196
2020/12/19 04:04:00.000,n,59,14.4,13.32,15.48,24.8,76,1011.12,0,0,0,0,0.031357
2020/12/19 04:05:00.000,n,30,12.96,12.24,14.04,24.8,76,1011.22,0,0,0,0,0.033073
2020/12/19 04:06:00.000,n,60,6.84,4.68,9,24.8,76,1011.22,0,0,0,0,0.031357
2020/12/19 04:07:00.000,n,11,9.72,8.28,11.16,24.8,75.9,1011.22,0,0,0,0,0.033951
2020/12/19 04:08:00.005,n,69,13.32,11.16,14.4,24.8,75.9,1011.22,0,0,0,0,0.036545
2020/12/19 04:09:00.001,n,344,7.56,5.76,9,24.8,75.9,1011.32,0,0,0,0,0.03479
2020/12/19 04:10:00.000,n,4,6.12,5.4,7.2,24.8,76.6,1011.32,0,0,0,0,0.0383
2020/12/19 04:11:00.012,n,60,5.04,3.24,7.2,24.8,76,1011.32,0,0,0,0,0.033951
2020/12/19 04:12:00.009,n,30,10.8,9.72,11.52,24.8,75.9,1011.32,0,0,0,0,0.040016
2020/12/19 04:13:00.000,n,42,8.64,2.52,12.96,24.8,75.8,1011.32,0,0,0,0,0.040894
2020/12/19 04:14:00.002,n,70,2.88,1.44,5.76,24.8,75.7,1011.42,0,0,0,0,0.040016
2020/12/19 04:15:00.000,n,38,9,8.28,9.72,24.8,75.7,1011.42,0,0,0,0,0.04612
2020/12/19 04:16:00.000,n,45,8.28,7.56,8.64,24.8,75.6,1011.42,0,0,0,0,0.041771
2020/12/19 04:17:00.000,n,5,6.48,4.68,7.56,24.8,75.6,1011.42,0,0,0,0,0.052185
2020/12/19 04:18:00.006,n,27,3.24,1.08,5.04,24.8,75.5,1011.42,0,0,0,0,0.052185
2020/12/19 04:19:00.003,n,35,2.88,2.16,3.6,24.8,75.5,1011.42,0,0,0,0,0.054817
2020/12/19 04:20:00.002,n,12,6.84,6.48,6.84,24.8,75.3,1011.52,0,0,0,0,0.063515
2020/12/19 04:21:00.016,n,0,9,7.92,10.440002,24.8,75,1011.52,0,0,0,0,0.070496
2020/12/19 04:22:00.000,n,43,5.4,5.04,5.4,24.8,75,1011.52,0,0,0,0,0.077438
2020/12/19 04:23:00.000,n,2,4.32,3.24,5.04,24.8,75.1,1011.52,0,0,0,0,0.086136
2020/12/19 04:24:00.000,n,16,6.48,5.4,8.28,24.8,74.6,1011.52,0,0,0,0,0.09655
2020/12/19 04:25:00.004,n,2,9.72,5.76,12.96,24.8,74.6,1011.52,0,0,0,0,0.113106
2020/12/19 04:26:00.003,n,23,6.12,3.6,7.92,24.8,74.6,1011.52,0,0,0,0,0.13134
2020/12/19 04:27:00.000,n,16,6.48,5.4,7.2,24.8,74.7,1011.52,0,0,0,0,0.152245
2020/12/19 04:28:00.000,n,0,5.4,5.4,5.76,24.8,74.7,1011.52,0,0,0,0,0.17746
2020/12/19 04:29:00.010,n,26,3.96,3.6,4.32,24.8,74.7,1011.52,0,0,0,0,0.212212
2020/12/19 04:30:00.007,n,39,4.68,2.52,7.56,24.8,74.7,1011.52,0,0,0,0,0.243492
2020/12/19 04:31:00.000,n,13,8.28,5.76,9.72,24.8,74.5,1011.52,0,0,0,0,0.298233
2020/12/19 04:32:00.000,n,41,9.36,8.28,9.72,24.8,74.4,1011.52,0,0,0,0,0.362511
2020/12/19 04:33:00.000,n,7,6.84,5.4,9,24.8,74.3,1011.52,0,0,0,0,0.440636
2020/12/19 04:34:00.000,n,36,11.52,10.8,12.24,24.8,74,1011.52,0,0,0,0,0.550575
2020/12/19 04:35:00.000,n,36,11.52,10.440002,12.6,24.8,73.9,1011.52,0,0,0,0,0.736008
2020/12/19 04:36:00.006,n,22,6.48,5.4,7.2,24.8,73.9,1011.52,0,0,0,0,1.049805
2020/12/19 04:37:00.003,n,41,6.12,5.76,7.2,24.8,73.9,1011.52,0,0,0,0,1.502609
2020/12/19 04:38:00.000,n,4,15.12,13.68,16.2,24.8,73.9,1011.52,0,0,0,0,2.028236
2020/12/19 04:39:00.014,n,34,8.64,7.2,10.08,24.8,73.8,1011.52,0,0,0,0,2.569389
2020/12/19 04:40:00.000,n,33,7.56,5.4,10.08,24.8,73.8,1011.52,0,0,0,0,3.089028
2020/12/19 04:41:00.000,n,37,15.12,14.4,15.84,24.8,73.8,1011.52,0,0,0,0,3.603821
2020/12/19 04:42:00.000,n,34,9.72,9.36,10.08,24.8,73.7,1011.52,0,0,0,0,4.06662
2020/12/19 04:43:00.004,n,38,12.6,11.52,14.76,24.8,73.8,1011.62,0,0,0,0,4.365845
2020/12/19 04:44:00.001,n,40,11.16,10.440002,12.6,24.8,73.8,1011.62,0,0,0,0,4.46373
2020/12/19 04:45:00.000,n,31,14.76,13.32,16.2,24.8,73.8,1011.62,0,0,0,0,4.07692
2020/12/19 04:46:00.011,n,48,10.440002,8.28,11.88,24.8,73.8,1011.72,0,0,0,0,3.488159
2020/12/19 04:47:00.009,n,26,8.64,8.28,9.72,24.9,73.9,1011.72,0,0,0,0,3.35949
2020/12/19 04:48:00.005,n,60,4.68,3.6,5.76,24.8,73.9,1011.72,0,0,0,0,3.604698
2020/12/19 04:49:00.000,n,27,9,8.28,9.72,24.8,73.9,1011.72,0,0,0,0,4.000321
2020/12/19 04:50:00.000,n,42,4.32,3.24,5.76,24.8,74,1011.72,0,0,0,0,4.547882
2020/12/19 04:51:00.000,n,9,7.56,6.48,8.28,24.8,74,1011.72,0,0,0,0,5.16697
2020/12/19 04:52:00.000,n,36,9,8.28,9.72,24.8,74.1,1011.72,0,0,0,0,5.753289